| time (UTC) | temp C | wind direction | speed KPH | gust KPH | rain 1hr cm | rain 24hr cm | rain mn cm | humidity % | barometer mb |
| 20260504050309 | 14 | 209 | 16.1 | 30.6 | 0.00 | 0.00 | 0.00 | 39 | 998.3 |
| 20260504045809 | 14 | 225 | 14.5 | 25.7 | 0.00 | 0.00 | 0.00 | 39 | 998.3 |
| 20260504045309 | 14 | 213 | 14.5 | 25.7 | 0.00 | 0.00 | 0.00 | 39 | 998.5 |
| 20260504044809 | 14 | 229 | 14.5 | 25.7 | 0.00 | 0.00 | 0.00 | 39 | 998.6 |
| 20260504044309 | 14 | 205 | 14.5 | 25.7 | 0.00 | 0.00 | 0.00 | 39 | 998.8 |
| 20260504043809 | 14 | 234 | 14.5 | 27.4 | 0.00 | 0.00 | 0.00 | 39 | 998.9 |
| 20260504043309 | 14 | 246 | 12.9 | 25.7 | 0.00 | 0.00 | 0.00 | 40 | 998.9 |
| 20260504042809 | 14 | 225 | 12.9 | 29.0 | 0.00 | 0.00 | 0.00 | 40 | 999.1 |
| 20260504042309 | 14 | 230 | 12.9 | 27.4 | 0.00 | 0.00 | 0.00 | 40 | 999.2 |
| 20260504041809 | 13 | 232 | 11.3 | 22.5 | 0.00 | 0.00 | 0.00 | 42 | 999.3 |
| 20260504041309 | 13 | 233 | 11.3 | 20.9 | 0.00 | 0.00 | 0.00 | 41 | 999.5 |
| 20260504040809 | 13 | 244 | 12.9 | 20.9 | 0.00 | 0.00 | 0.00 | 41 | 999.7 |
| 20260504040309 | 13 | 231 | 12.9 | 20.9 | 0.00 | 0.00 | 0.00 | 41 | 999.8 |
| 20260504035809 | 14 | 242 | 12.9 | 27.4 | 0.00 | 0.00 | 0.00 | 40 | 999.9 |
| 20260504035309 | 14 | 210 | 12.9 | 20.9 | 0.00 | 0.00 | 0.00 | 41 | 1000.0 |
| 20260504034809 | 14 | 221 | 11.3 | 24.1 | 0.00 | 0.00 | 0.00 | 41 | 1000.2 |
| 20260504034309 | 14 | 232 | 11.3 | 19.3 | 0.00 | 0.00 | 0.00 | 41 | 1000.3 |
| 20260504033809 | 14 | 213 | 11.3 | 17.7 | 0.00 | 0.00 | 0.00 | 40 | 1000.5 |
| 20260504033309 | 14 | 237 | 11.3 | 19.3 | 0.00 | 0.00 | 0.00 | 41 | 1000.6 |
| 20260504032809 | 14 | 197 | 11.3 | 19.3 | 0.00 | 0.00 | 0.00 | 40 | 1000.7 |
| 20260504032309 | 14 | 220 | 11.3 | 19.3 | 0.00 | 0.00 | 0.00 | 40 | 1000.9 |
| 20260504031809 | 14 | 214 | 9.7 | 20.9 | 0.00 | 0.00 | 0.00 | 40 | 1001.0 |
| 20260504031309 | 14 | 199 | 9.7 | 14.5 | 0.00 | 0.00 | 0.00 | 40 | 1001.2 |
| 20260504030809 | 15 | 221 | 9.7 | 16.1 | 0.00 | 0.00 | 0.00 | 39 | 1001.2 |
| 20260504030309 | 15 | 249 | 9.7 | 16.1 | 0.00 | 0.00 | 0.00 | 39 | 1001.5 |
| 20260504025809 | 15 | 225 | 9.7 | 17.7 | 0.00 | 0.00 | 0.00 | 38 | 1001.4 |
| 20260504025309 | 15 | 241 | 8.0 | 16.1 | 0.00 | 0.00 | 0.00 | 39 | 1001.6 |
| 20260504024809 | 15 | 215 | 8.0 | 14.5 | 0.00 | 0.00 | 0.00 | 38 | 1001.7 |
| 20260504024309 | 15 | 225 | 6.4 | 14.5 | 0.00 | 0.00 | 0.00 | 39 | 1001.7 |
| 20260504023809 | 15 | 207 | 8.0 | 14.5 | 0.00 | 0.00 | 0.00 | 38 | 1001.8 |
| 20260504023309 | 15 | 232 | 8.0 | 14.5 | 0.00 | 0.00 | 0.00 | 38 | 1001.9 |
| 20260504022809 | 15 | 235 | 8.0 | 12.9 | 0.00 | 0.00 | 0.00 | 37 | 1002.0 |
| 20260504022309 | 15 | 241 | 8.0 | 14.5 | 0.00 | 0.00 | 0.00 | 36 | 1002.0 |
| 20260504021809 | 16 | 223 | 9.7 | 14.5 | 0.00 | 0.00 | 0.00 | 35 | 1002.1 |
| 20260504021309 | 16 | 228 | 9.7 | 16.1 | 0.00 | 0.00 | 0.00 | 34 | 1002.1 |
| 20260504020809 | 16 | 246 | 8.0 | 19.3 | 0.00 | 0.00 | 0.00 | 34 | 1002.2 |
| 20260504020309 | 16 | 240 | 8.0 | 17.7 | 0.00 | 0.00 | 0.00 | 35 | 1002.2 |
| 20260504015809 | 16 | 232 | 6.4 | 12.9 | 0.00 | 0.00 | 0.00 | 35 | 1002.4 |
| 20260504015309 | 16 | 240 | 6.4 | 11.3 | 0.00 | 0.00 | 0.00 | 35 | 1002.4 |
| 20260504014809 | 16 | 240 | 6.4 | 12.9 | 0.00 | 0.00 | 0.00 | 35 | 1002.5 |
| 20260504014309 | 16 | 233 | 4.8 | 9.7 | 0.00 | 0.00 | 0.00 | 35 | 1002.5 |
| 20260504013809 | 16 | 234 | 4.8 | 8.0 | 0.00 | 0.00 | 0.00 | 35 | 1002.6 |
| 20260504013309 | 16 | 249 | 4.8 | 8.0 | 0.00 | 0.00 | 0.00 | 36 | 1002.6 |
| 20260504012809 | 16 | 246 | 4.8 | 6.4 | 0.00 | 0.00 | 0.00 | 36 | 1002.7 |
| 20260504012309 | 17 | 250 | 6.4 | 12.9 | 0.00 | 0.00 | 0.00 | 35 | 1002.8 |
| 20260504011809 | 17 | 243 | 6.4 | 11.3 | 0.00 | 0.00 | 0.00 | 34 | 1002.8 |
| 20260504011309 | 17 | 244 | 6.4 | 11.3 | 0.00 | 0.00 | 0.00 | 34 | 1002.8 |
| 20260504010809 | 17 | 248 | 6.4 | 11.3 | 0.00 | 0.00 | 0.00 | 34 | 1002.8 |
| 20260504010309 | 17 | 252 | 6.4 | 14.5 | 0.00 | 0.00 | 0.00 | 34 | 1002.8 |
| 20260504005809 | 17 | 260 | 6.4 | 11.3 | 0.00 | 0.00 | 0.00 | 33 | 1003.0 |
| 20260504005309 | 17 | 248 | 6.4 | 14.5 | 0.00 | 0.00 | 0.00 | 32 | 1002.9 |
| 20260504004809 | 17 | 253 | 8.0 | 11.3 | 0.00 | 0.00 | 0.00 | 32 | 1003.1 |
| 20260504004309 | 18 | 263 | 11.3 | 19.3 | 0.00 | 0.00 | 0.00 | 31 | 1003.1 |
| 20260504003809 | 18 | 255 | 11.3 | 20.9 | 0.00 | 0.00 | 0.00 | 30 | 1003.1 |
| 20260504003309 | 18 | 251 | 11.3 | 17.7 | 0.00 | 0.00 | 0.00 | 31 | 1003.1 |
| 20260504002809 | 18 | 266 | 11.3 | 17.7 | 0.00 | 0.00 | 0.00 | 31 | 1003.1 |
| 20260504002309 | 18 | 273 | 11.3 | 17.7 | 0.00 | 0.00 | 0.00 | 30 | 1003.2 |
| 20260504001810 | 18 | 265 | 11.3 | 16.1 | 0.00 | 0.00 | 0.00 | 30 | 1003.2 |
| 20260504001310 | 18 | 257 | 11.3 | 16.1 | 0.00 | 0.00 | 0.00 | 31 | 1003.2 |
| 20260504000810 | 18 | 271 | 9.7 | 17.7 | 0.00 | 0.00 | 0.00 | 31 | 1003.4 |
| 20260504000310 | 18 | 273 | 9.7 | 16.1 | 0.00 | 0.00 | 0.00 | 30 | 1003.4 |
| 20260503235810 | 18 | 286 | 9.7 | 19.3 | 0.00 | 0.00 | 0.00 | 28 | 1003.4 |
| 20260503235310 | 18 | 271 | 8.0 | 14.5 | 0.00 | 0.00 | 0.00 | 29 | 1003.4 |
| 20260503234810 | 18 | 281 | 8.0 | 14.5 | 0.00 | 0.00 | 0.00 | 30 | 1003.5 |
| 20260503234310 | 18 | 271 | 9.7 | 19.3 | 0.00 | 0.00 | 0.00 | 28 | 1003.5 |
| 20260503233810 | 18 | 277 | 11.3 | 17.7 | 0.00 | 0.00 | 0.00 | 29 | 1003.6 |
| 20260503233310 | 18 | 294 | 11.3 | 19.3 | 0.00 | 0.00 | 0.00 | 29 | 1003.6 |
| 20260503232810 | 18 | 278 | 11.3 | 19.3 | 0.00 | 0.00 | 0.00 | 29 | 1003.6 |
| 20260503232310 | 18 | 250 | 8.0 | 19.3 | 0.00 | 0.00 | 0.00 | 30 | 1003.7 |
| 20260503231810 | 19 | 257 | 3.2 | 12.9 | 0.00 | 0.00 | 0.00 | 29 | 1003.7 |
| 20260503231310 | 19 | 300 | 3.2 | 6.4 | 0.00 | 0.00 | 0.00 | 28 | 1003.8 |
| 20260503230810 | 19 | 294 | 4.8 | 11.3 | 0.00 | 0.00 | 0.00 | 29 | 1003.8 |
| 20260503230310 | 19 | 294 | 6.4 | 11.3 | 0.00 | 0.00 | 0.00 | 28 | 1004.0 |
| 20260503225810 | 19 | 269 | 6.4 | 11.3 | 0.00 | 0.00 | 0.00 | 28 | 1003.9 |
| 20260503225310 | 19 | 288 | 8.0 | 20.9 | 0.00 | 0.00 | 0.00 | 26 | 1004.0 |
| 20260503224810 | 19 | 270 | 9.7 | 22.5 | 0.00 | 0.00 | 0.00 | 27 | 1003.9 |
| 20260503224310 | 19 | 275 | 9.7 | 19.3 | 0.00 | 0.00 | 0.00 | 29 | 1004.1 |
| 20260503223810 | 18 | 275 | 6.4 | 16.1 | 0.00 | 0.00 | 0.00 | 29 | 1004.2 |
| 20260503223310 | 19 | 284 | 4.8 | 11.3 | 0.00 | 0.00 | 0.00 | 27 | 1004.2 |
| 20260503222810 | 19 | 290 | 9.7 | 19.3 | 0.00 | 0.00 | 0.00 | 26 | 1004.2 |
| 20260503222310 | 19 | 253 | 11.3 | 19.3 | 0.00 | 0.00 | 0.00 | 27 | 1004.2 |
| 20260503221810 | 19 | 252 | 6.4 | 24.1 | 0.00 | 0.00 | 0.00 | 29 | 1004.3 |
| 20260503221310 | 19 | 292 | 6.4 | 12.9 | 0.00 | 0.00 | 0.00 | 27 | 1004.3 |
| 20260503220810 | 19 | 307 | 4.8 | 11.3 | 0.00 | 0.00 | 0.00 | 26 | 1004.3 |
| 20260503220310 | 19 | 283 | 4.8 | 12.9 | 0.00 | 0.00 | 0.00 | 28 | 1004.3 |
| 20260503215810 | 18 | 259 | 4.8 | 16.1 | 0.00 | 0.00 | 0.00 | 28 | 1004.5 |
| 20260503215310 | 18 | 315 | 6.4 | 16.1 | 0.00 | 0.00 | 0.00 | 27 | 1004.6 |
| 20260503214810 | 18 | 262 | 6.4 | 17.7 | 0.00 | 0.00 | 0.00 | 28 | 1004.7 |
| 20260503214310 | 18 | 299 | 6.4 | 16.1 | 0.00 | 0.00 | 0.00 | 27 | 1004.8 |
| 20260503213810 | 18 | 290 | 4.8 | 16.1 | 0.00 | 0.00 | 0.00 | 27 | 1004.8 |
| 20260503213310 | 18 | 302 | 8.0 | 14.5 | 0.00 | 0.00 | 0.00 | 29 | 1004.8 |
| 20260503212810 | 18 | 282 | 12.9 | 24.1 | 0.00 | 0.00 | 0.00 | 28 | 1004.9 |
| 20260503212310 | 18 | 275 | 9.7 | 25.7 | 0.00 | 0.00 | 0.00 | 27 | 1005.0 |
| 20260503211810 | 18 | 254 | 6.4 | 19.3 | 0.00 | 0.00 | 0.00 | 27 | 1005.0 |
| 20260503211310 | 18 | 304 | 8.0 | 19.3 | 0.00 | 0.00 | 0.00 | 27 | 1005.0 |
| 20260503210810 | 18 | 312 | 8.0 | 16.1 | 0.00 | 0.00 | 0.00 | 27 | 1005.2 |
| 20260503210310 | 18 | 275 | 6.4 | 17.7 | 0.00 | 0.00 | 0.00 | 29 | 1005.1 |
| 20260503205810 | 18 | 304 | 8.0 | 14.5 | 0.00 | 0.00 | 0.00 | 29 | 1005.3 |
| 20260503205310 | 18 | 288 | 11.3 | 20.9 | 0.00 | 0.00 | 0.00 | 28 | 1005.1 |
| 20260503204810 | 18 | 261 | 8.0 | 24.1 | 0.00 | 0.00 | 0.00 | 29 | 1005.2 |
| 20260503204310 | 18 | 277 | 6.4 | 16.1 | 0.00 | 0.00 | 0.00 | 28 | 1005.4 |
| 20260503203810 | 18 | 286 | 8.0 | 17.7 | 0.00 | 0.00 | 0.00 | 29 | 1005.5 |
| 20260503203310 | 18 | 288 | 6.4 | 22.5 | 0.00 | 0.00 | 0.00 | 30 | 1005.6 |
| 20260503202810 | 18 | 284 | 8.0 | 17.7 | 0.00 | 0.00 | 0.00 | 28 | 1005.6 |
| 20260503202310 | 18 | 286 | 6.4 | 17.7 | 0.00 | 0.00 | 0.00 | 27 | 1005.7 |
| 20260503201810 | 18 | 286 | 6.4 | 14.5 | 0.00 | 0.00 | 0.00 | 28 | 1005.7 |
| 20260503201310 | 18 | 296 | 6.4 | 16.1 | 0.00 | 0.00 | 0.00 | 28 | 1005.8 |
| 20260503200810 | 18 | 300 | 6.4 | 16.1 | 0.00 | 0.00 | 0.00 | 27 | 1005.9 |
| 20260503200310 | 18 | 298 | 6.4 | 19.3 | 0.00 | 0.00 | 0.00 | 28 | 1005.9 |
| 20260503195810 | 18 | 285 | 6.4 | 17.7 | 0.00 | 0.00 | 0.00 | 29 | 1005.9 |
| 20260503195310 | 18 | 280 | 4.8 | 11.3 | 0.00 | 0.00 | 0.00 | 28 | 1005.9 |
| 20260503194810 | 18 | 310 | 9.7 | 14.5 | 0.00 | 0.00 | 0.00 | 28 | 1006.1 |
| 20260503194310 | 18 | 332 | 9.7 | 19.3 | 0.00 | 0.00 | 0.00 | 28 | 1006.1 |
| 20260503193810 | 18 | 321 | 6.4 | 19.3 | 0.00 | 0.00 | 0.00 | 28 | 1006.1 |
| 20260503193310 | 17 | 327 | 6.4 | 14.5 | 0.00 | 0.00 | 0.00 | 29 | 1006.0 |
| 20260503192810 | 17 | 296 | 6.4 | 12.9 | 0.00 | 0.00 | 0.00 | 29 | 1006.1 |
| 20260503192310 | 17 | 303 | 6.4 | 14.5 | 0.00 | 0.00 | 0.00 | 28 | 1006.1 |
| 20260503191810 | 17 | 306 | 6.4 | 14.5 | 0.00 | 0.00 | 0.00 | 27 | 1006.2 |
| 20260503191310 | 17 | 309 | 8.0 | 24.1 | 0.00 | 0.00 | 0.00 | 29 | 1006.1 |
| 20260503190810 | 17 | 279 | 8.0 | 19.3 | 0.00 | 0.00 | 0.00 | 28 | 1006.1 |
| 20260503190310 | 17 | 338 | 8.0 | 17.7 | 0.00 | 0.00 | 0.00 | 28 | 1006.2 |
| 20260503185810 | 17 | 327 | 9.7 | 17.7 | 0.00 | 0.00 | 0.00 | 28 | 1006.3 |
| 20260503185310 | 17 | 319 | 8.0 | 25.7 | 0.00 | 0.00 | 0.00 | 28 | 1006.5 |
| 20260503184810 | 17 | 321 | 8.0 | 14.5 | 0.00 | 0.00 | 0.00 | 30 | 1006.5 |
| 20260503184310 | 17 | 335 | 8.0 | 19.3 | 0.00 | 0.00 | 0.00 | 28 | 1006.7 |
| 20260503183810 | 17 | 5 | 6.4 | 17.7 | 0.00 | 0.00 | 0.00 | 28 | 1006.8 |
| 20260503183310 | 17 | 285 | 8.0 | 8.0 | 0.00 | 0.00 | 0.00 | 28 | 1006.8 |
| 20260503182810 | 17 | 313 | 11.3 | 19.3 | 0.00 | 0.00 | 0.00 | 28 | 1007.0 |
| 20260503182310 | 17 | 323 | 11.3 | 24.1 | 0.00 | 0.00 | 0.00 | 29 | 1007.0 |
| 20260503181810 | 16 | 346 | 9.7 | 20.9 | 0.00 | 0.00 | 0.00 | 28 | 1007.2 |
| 20260503181310 | 16 | 344 | 8.0 | 19.3 | 0.00 | 0.00 | 0.00 | 30 | 1007.2 |
| 20260503180810 | 16 | 323 | 9.7 | 17.7 | 0.00 | 0.00 | 0.00 | 28 | 1007.3 |
| 20260503180310 | 16 | 329 | 14.5 | 22.5 | 0.00 | 0.00 | 0.00 | 29 | 1007.4 |
| 20260503175810 | 16 | 324 | 17.7 | 27.4 | 0.00 | 0.00 | 0.00 | 27 | 1007.3 |
| 20260503175310 | 16 | 346 | 14.5 | 30.6 | 0.00 | 0.00 | 0.00 | 28 | 1007.3 |
| 20260503174810 | 16 | 345 | 11.3 | 22.5 | 0.00 | 0.00 | 0.00 | 28 | 1007.3 |
| 20260503174310 | 16 | 308 | 12.9 | 19.3 | 0.00 | 0.00 | 0.00 | 29 | 1007.2 |
| 20260503173810 | 16 | 355 | 12.9 | 27.4 | 0.00 | 0.00 | 0.00 | 27 | 1007.4 |
| 20260503173310 | 16 | 339 | 12.9 | 25.7 | 0.00 | 0.00 | 0.00 | 27 | 1007.5 |
| 20260503172810 | 16 | 320 | 14.5 | 25.7 | 0.00 | 0.00 | 0.00 | 28 | 1007.5 |
| 20260503172310 | 16 | 338 | 12.9 | 24.1 | 0.00 | 0.00 | 0.00 | 27 | 1007.5 |
| 20260503171810 | 16 | 315 | 12.9 | 22.5 | 0.00 | 0.00 | 0.00 | 28 | 1007.5 |
| 20260503171310 | 16 | 350 | 11.3 | 24.1 | 0.00 | 0.00 | 0.00 | 27 | 1007.8 |
| 20260503170810 | 15 | 315 | 11.3 | 19.3 | 0.00 | 0.00 | 0.00 | 28 | 1007.8 |
| 20260503170310 | 16 | 328 | 12.9 | 24.1 | 0.00 | 0.00 | 0.00 | 29 | 1007.8 |
| 20260503150810 | 13 | 334 | 14.5 | 24.1 | 0.00 | 0.00 | 0.00 | 48 | 1007.7 |
| 20260503150310 | 13 | 306 | 16.1 | 27.4 | 0.00 | 0.00 | 0.00 | 49 | 1007.6 |
| 20260503140311 | 12 | 337 | 9.7 | 17.7 | 0.00 | 0.00 | 0.00 | 54 | 1007.4 |
| 20260503131311 | 10 | 5 | 11.3 | 17.7 | 0.00 | 0.00 | 0.00 | 61 | 1007.2 |
| 20260503130811 | 10 | 346 | 11.3 | 17.7 | 0.00 | 0.00 | 0.00 | 62 | 1007.2 |
| 20260503130311 | 10 | 348 | 9.7 | 19.3 | 0.00 | 0.00 | 0.00 | 62 | 1007.2 |
| 20260503110811 | 7 | 336 | 12.9 | 25.7 | 0.00 | 0.00 | 0.00 | 67 | 1005.2 |
| 20260503110311 | 7 | 330 | 11.3 | 20.9 | 0.00 | 0.00 | 0.00 | 67 | 1005.2 |
| 20260503090332 | 10 | 277 | 4.8 | 0.0 | 0.00 | 0.76 | 0.00 | 62 | 1004.5 |
| 20260503090311 | 10 | 277 | 4.8 | 9.7 | 0.00 | 0.00 | 0.00 | 62 | 1004.5 |
| 20260503081311 | 11 | 230 | 12.9 | 20.9 | 0.00 | 0.00 | 0.00 | 57 | 1004.2 |
| 20260503080811 | 11 | 263 | 12.9 | 24.1 | 0.00 | 0.00 | 0.00 | 57 | 1004.2 |
| 20260503080311 | 11 | 229 | 12.9 | 22.5 | 0.00 | 0.00 | 0.00 | 56 | 1004.1 |
| 20260503072811 | 11 | 242 | 9.7 | 16.1 | 0.00 | 0.00 | 0.00 | 55 | 1004.5 |
| 20260503072311 | 12 | 246 | 8.0 | 16.1 | 0.00 | 0.00 | 0.00 | 55 | 1004.5 |
| 20260503071811 | 12 | 240 | 8.0 | 14.5 | 0.00 | 0.00 | 0.00 | 55 | 1004.5 |
| 20260503071311 | 12 | 225 | 9.7 | 19.3 | 0.00 | 0.00 | 0.00 | 55 | 1004.5 |
| 20260503070811 | 12 | 242 | 11.3 | 16.1 | 0.00 | 0.00 | 0.00 | 54 | 1004.6 |
| 20260503070311 | 12 | 254 | 12.9 | 24.1 | 0.00 | 0.00 | 0.00 | 54 | 1004.7 |